Weather History for Owatonna, MN

Change the Weather History Date:

Tuesday, June 18, 2013

  Actual Average Record
Temperature  
Mean Temperature 69 °F -  
Max Temperature 78 °F 80 °F 92 °F (1987)
Min Temperature 60 °F 56 °F 46 °F (1974)
Cooling Degree Days 4    
Growing Degree Days 19 (Base 50)    
Moisture  
Dew Point 58 °F    
Average Humidity 70    
Maximum Humidity 88    
Minimum Humidity 47    
Precipitation  
Precipitation 0.00 in - - ()
Sea Level Pressure  
Sea Level Pressure 30.05 in    
Wind  
Wind Speed 7 mph (ENE)    
Max Wind Speed 15 mph    
Max Gust Speed 17 mph    
Visibility 10 miles    
Events Thunderstorm    
Averages and records for this station are not official NWS values.
T = Trace of Precipitation, MM = Missing Value Source: NWS Daily Summary

Daily Weather History Graph

Daily Weather History Graph

Search for Another Location

Airport:

Trip Planner

Search our weather history database for the weather conditions in past years. The results will help you decide how hot, cold, wet, or windy it might be!

Date:

Astronomy

Jun. 18, 2013 Rise Set
Actual Time 5:29 AM CDT 8:59 PM CDT
Civil Twilight 4:52 AM CDT 9:35 PM CDT
Nautical Twilight 4:04 AM CDT 10:23 PM CDT
Astronomical Twilight 3:03 AM CDT 11:25 PM CDT
Moon 3:36 PM CDT (6/18) 1:47 AM CDT (6/18)
Length of Visible Light 16h 42m
Length of Day
15h 30m
Waxing Gibbous, 71% of the Moon is Illuminated
Jun 18
Waxing Gibbous
Jun 23
Full
Jun 29
Last Quarter
Jul 8
New
Jul 15
First Quarter

Hourly Weather History & Observations

Time (CDT) Temp. Dew Point Humidity Pressure Visibility Wind Dir Wind Speed Gust Speed Precip Events Conditions
12:14 AM 68.0 °F 59.0 °F 73% 30.00 in 10.0 mi North 4.6 mph - N/A   Mostly Cloudy
12:34 AM 68.0 °F 57.2 °F 68% 30.00 in 10.0 mi North 5.8 mph - N/A   Mostly Cloudy
12:54 AM 66.2 °F 59.0 °F 78% 30.00 in 10.0 mi NNE 6.9 mph - N/A   Overcast
1:14 AM 66.2 °F 59.0 °F 78% 30.00 in 10.0 mi NNE 6.9 mph - N/A   Mostly Cloudy
1:34 AM 64.4 °F 57.2 °F 77% 30.00 in 10.0 mi NE 6.9 mph - N/A   Scattered Clouds
1:54 AM 64.4 °F 57.2 °F 77% 30.00 in 10.0 mi NNE 8.1 mph - N/A   Scattered Clouds
2:14 AM 64.4 °F 57.2 °F 77% 30.01 in 10.0 mi NE 5.8 mph - N/A   Mostly Cloudy
2:34 AM 64.4 °F 57.2 °F 77% 30.00 in 10.0 mi NE 6.9 mph - N/A   Scattered Clouds
2:54 AM 62.6 °F 57.2 °F 82% 30.01 in 10.0 mi NNE 5.8 mph - N/A   Clear
3:14 AM 62.6 °F 57.2 °F 82% 30.01 in 10.0 mi NE 4.6 mph - N/A   Clear
3:34 AM 62.6 °F 57.2 °F 82% 30.01 in 10.0 mi NNE 5.8 mph - N/A   Clear
3:54 AM 60.8 °F 57.2 °F 88% 30.01 in 10.0 mi NE 4.6 mph - N/A   Scattered Clouds
4:14 AM 60.8 °F 57.2 °F 88% 30.01 in 10.0 mi NE 3.5 mph - N/A   Clear
4:34 AM 60.8 °F 55.4 °F 82% 30.02 in 10.0 mi NE 3.5 mph - N/A   Clear
4:54 AM 60.8 °F 57.2 °F 88% 30.03 in 10.0 mi NNE 5.8 mph - N/A Thunderstorm Clear
5:14 AM 60.8 °F 57.2 °F 88% 30.04 in 10.0 mi North 4.6 mph - N/A   Clear
5:34 AM 60.8 °F 57.2 °F 88% 30.08 in 10.0 mi West 15.0 mph - N/A Thunderstorm Scattered Clouds
5:54 AM 60.8 °F 55.4 °F 82% 30.08 in 10.0 mi WNW 13.8 mph - N/A Thunderstorm Overcast
6:14 AM 60.8 °F 55.4 °F 82% 30.08 in 10.0 mi NW 8.1 mph - N/A Thunderstorm Overcast
6:34 AM 60.8 °F 55.4 °F 82% 30.08 in 10.0 mi North 5.8 mph - N/A   Overcast
6:54 AM 60.8 °F 55.4 °F 82% 30.07 in 10.0 mi NE 4.6 mph - N/A Thunderstorm Overcast
7:14 AM 60.8 °F 55.4 °F 82% 30.05 in 10.0 mi ENE 8.1 mph - N/A   Mostly Cloudy
7:34 AM 62.6 °F 57.2 °F 82% 30.05 in 10.0 mi NE 9.2 mph - N/A   Clear
7:54 AM 62.6 °F 57.2 °F 82% 30.06 in 10.0 mi NE 12.7 mph - N/A   Clear
8:14 AM 62.6 °F 55.4 °F 77% 30.06 in 10.0 mi NE 9.2 mph - N/A   Scattered Clouds
8:34 AM 62.6 °F 55.4 °F 77% 30.07 in 10.0 mi ENE 11.5 mph - N/A   Mostly Cloudy
8:54 AM 64.4 °F 57.2 °F 77% 30.07 in 10.0 mi ENE 8.1 mph - N/A   Scattered Clouds
9:14 AM 64.4 °F 57.2 °F 77% 30.07 in 10.0 mi ENE 10.4 mph - N/A   Scattered Clouds
9:34 AM 64.4 °F 59.0 °F 83% 30.07 in 10.0 mi East 11.5 mph - N/A   Overcast
9:54 AM 66.2 °F 60.8 °F 83% 30.07 in 10.0 mi East 13.8 mph 17.3 mph N/A   Mostly Cloudy
10:14 AM 68.0 °F 60.8 °F 78% 30.07 in 10.0 mi East 10.4 mph - N/A   Scattered Clouds
10:34 AM 69.8 °F 60.8 °F 73% 30.08 in 10.0 mi East 6.9 mph - N/A   Scattered Clouds
10:54 AM 68.0 °F 60.8 °F 78% 30.08 in 10.0 mi ESE 8.1 mph - N/A   Scattered Clouds
11:14 AM 69.8 °F 60.8 °F 73% 30.08 in 10.0 mi East 4.6 mph - N/A   Scattered Clouds
11:34 AM 69.8 °F 59.0 °F 68% 30.08 in 10.0 mi Calm Calm - N/A   Scattered Clouds
11:54 AM 71.6 °F 60.8 °F 69% 30.08 in 10.0 mi Calm Calm - N/A   Scattered Clouds
12:14 PM 69.8 °F 59.0 °F 68% 30.08 in 7.0 mi Calm Calm - N/A   Scattered Clouds
12:34 PM 71.6 °F 60.8 °F 69% 30.08 in 10.0 mi North 5.8 mph - N/A   Scattered Clouds
12:54 PM 71.6 °F 60.8 °F 69% 30.07 in 10.0 mi North 5.8 mph - N/A   Scattered Clouds
1:14 PM 71.6 °F 60.8 °F 69% 30.07 in 10.0 mi NE 6.9 mph - N/A   Mostly Cloudy
1:34 PM 75.2 °F 60.8 °F 61% 30.07 in 10.0 mi East 5.8 mph - N/A   Scattered Clouds
1:54 PM 73.4 °F 60.8 °F 65% 30.07 in 10.0 mi NE 6.9 mph - N/A   Scattered Clouds
2:14 PM 75.2 °F 60.8 °F 61% 30.06 in 10.0 mi East 10.4 mph - N/A   Scattered Clouds
2:34 PM 77.0 °F 57.2 °F 50% 30.06 in 10.0 mi East 6.9 mph - N/A   Clear
2:54 PM 75.2 °F 57.2 °F 53% 30.06 in 10.0 mi East 4.6 mph - N/A   Scattered Clouds
3:14 PM 77.0 °F 57.2 °F 50% 30.05 in 10.0 mi ENE 6.9 mph - N/A   Scattered Clouds
3:34 PM 75.2 °F 57.2 °F 53% 30.05 in 10.0 mi East 8.1 mph - N/A   Mostly Cloudy
3:54 PM 77.0 °F 59.0 °F 54% 30.05 in 10.0 mi East 10.4 mph - N/A   Mostly Cloudy
4:14 PM 78.8 °F 57.2 °F 47% 30.04 in 10.0 mi ESE 4.6 mph - N/A   Scattered Clouds
4:34 PM 78.8 °F 57.2 °F 47% 30.04 in 10.0 mi ENE 10.4 mph - N/A   Scattered Clouds
4:54 PM 77.0 °F 57.2 °F 50% 30.03 in 10.0 mi East 8.1 mph - N/A   Scattered Clouds
5:14 PM 78.8 °F 57.2 °F 47% 30.03 in 10.0 mi East 6.9 mph - N/A   Scattered Clouds
5:34 PM 75.2 °F 57.2 °F 53% 30.03 in 10.0 mi East 8.1 mph - N/A   Mostly Cloudy
5:54 PM 75.2 °F 57.2 °F 53% 30.03 in 10.0 mi East 9.2 mph - N/A   Mostly Cloudy
6:14 PM 77.0 °F 57.2 °F 50% 30.03 in 10.0 mi East 6.9 mph - N/A   Mostly Cloudy
6:34 PM 77.0 °F 57.2 °F 50% 30.03 in 10.0 mi East 8.1 mph - N/A   Mostly Cloudy
6:54 PM 75.2 °F 57.2 °F 53% 30.03 in 10.0 mi East 10.4 mph - N/A   Scattered Clouds
7:14 PM 75.2 °F 57.2 °F 53% 30.03 in 10.0 mi East 9.2 mph - N/A   Clear
7:34 PM 73.4 °F 57.2 °F 57% 30.03 in 10.0 mi East 6.9 mph - N/A   Clear
7:54 PM 73.4 °F 57.2 °F 57% 30.03 in 10.0 mi East 4.6 mph - N/A   Clear
8:14 PM 73.4 °F 57.2 °F 57% 30.02 in 10.0 mi East 9.2 mph - N/A   Scattered Clouds
8:34 PM 71.6 °F 57.2 °F 60% 30.03 in 10.0 mi East 5.8 mph - N/A   Clear
8:54 PM 69.8 °F 57.2 °F 64% 30.03 in 10.0 mi East 4.6 mph - N/A   Scattered Clouds
9:14 PM 68.0 °F 57.2 °F 68% 30.03 in 10.0 mi East 5.8 mph - N/A   Scattered Clouds
9:34 PM 68.0 °F 57.2 °F 68% 30.04 in 10.0 mi East 4.6 mph - N/A   Clear
9:54 PM 66.2 °F 57.2 °F 73% 30.04 in 10.0 mi East 4.6 mph - N/A   Clear
10:14 PM 64.4 °F 57.2 °F 77% 30.05 in 10.0 mi Calm Calm - N/A   Clear
10:34 PM 66.2 °F 57.2 °F 73% 30.05 in 10.0 mi Calm Calm - N/A   Clear
10:54 PM 66.2 °F 57.2 °F 73% 30.06 in 10.0 mi ESE 3.5 mph - N/A   Clear
11:14 PM 64.4 °F 57.2 °F 77% 30.06 in 10.0 mi Calm Calm - N/A   Clear
11:34 PM 62.6 °F 57.2 °F 82% 30.06 in 10.0 mi Calm Calm - N/A   Clear
11:54 PM 60.8 °F 57.2 °F 88% 30.06 in 10.0 mi ESE 3.5 mph - N/A   Clear